Birchwood, AK

7:36 AM AKDT on September 19, 2017 (GMT -0800)
Birchwood

Weather History for PABV - December, 2012

Change the Weather History Date:

Saturday, December 8, 2012

  Actual Average Record
Temperature  
Mean Temperature 8 °F -  
Max Temperature 19 °F 19 °F 48 °F (2005)
Min Temperature -2 °F 8 °F -14 °F (2001)
Degree Days  
Heating Degree Days 56    
Moisture  
Dew Point 6 °F    
Average Humidity 92    
Maximum Humidity 100    
Minimum Humidity 85    
Precipitation  
Precipitation 0.00 in - - ()
Sea Level Pressure  
Sea Level Pressure 29.68 in    
Wind  
Wind Speed 2 mph (South)    
Max Wind Speed 8 mph    
Max Gust Speed -    
Visibility 8 miles    
Events      
Averages and records for this station are not official NWS values.
T = Trace of Precipitation, MM = Missing Value Source: NWS Daily Summary

Daily Weather History Graph

Daily Weather History Graph

Search for Another Location

Airport or City:

Trip Planner

Search our weather history database for the weather conditions in past years. The results will help you decide how hot, cold, wet, or windy it might be!

Date:

Astronomy

Dec. 08, 2012 Rise Set
Actual Time 10:00 AM AKST 3:39 PM AKST
Civil Twilight 8:59 AM AKST 4:40 PM AKST
Nautical Twilight 8:00 AM AKST 5:40 PM AKST
Astronomical Twilight 7:06 AM AKST 6:33 PM AKST
Moon 3:16 AM AKST (12/8) 1:28 PM AKST (12/8)
Length of Visible Light 7h 41m
Length of Day
5h 38m
Waning Crescent, 27% of the Moon is Illuminated
Dec 8
Waning Crescent
Dec 12
New
Dec 19
First Quarter
Dec 28
Full
Jan 4
Last Quarter

Hourly Weather History & Observations

Time (AKST) Temp. Windchill Dew Point Humidity Pressure Visibility Wind Dir Wind Speed Gust Speed Precip Events Conditions
12:16 AM -2.2 °F - -4.0 °F 92% 29.95 in 10.0 mi Calm Calm - N/A   Overcast
12:36 AM -2.2 °F -10.4 °F -5.8 °F 85% 29.96 in 10.0 mi SSE 3.5 mph - N/A   Mostly Cloudy
12:56 AM -2.2 °F - -4.0 °F 92% 29.96 in 10.0 mi Calm Calm - N/A   Overcast
1:16 AM -0.4 °F - -2.2 °F 92% 29.96 in 5.0 mi Calm Calm - N/A   Overcast
1:36 AM -2.2 °F -10.4 °F -4.0 °F 92% 29.97 in 10.0 mi South 3.5 mph - N/A   Mostly Cloudy
1:56 AM -0.4 °F - -2.2 °F 92% 29.97 in 10.0 mi Calm Calm - N/A   Mostly Cloudy
2:16 AM -0.4 °F -8.3 °F -2.2 °F 92% 29.97 in 10.0 mi SSE 3.5 mph - N/A   Overcast
2:36 AM -0.4 °F - -2.2 °F 92% 29.96 in 10.0 mi Calm Calm - N/A   Overcast
2:56 AM -0.4 °F - -2.2 °F 92% 29.96 in 10.0 mi Calm Calm - N/A   Overcast
3:16 AM -0.4 °F - -2.2 °F 92% 29.95 in 10.0 mi Calm Calm - N/A   Mostly Cloudy
3:36 AM -0.4 °F - -2.2 °F 92% 29.96 in 10.0 mi Calm Calm - N/A   Partly Cloudy
3:56 AM -2.2 °F - -5.8 °F 85% 29.95 in 10.0 mi Calm Calm - N/A   Clear
4:16 AM -2.2 °F - -5.8 °F 85% 29.94 in 10.0 mi Calm Calm - N/A   Clear
4:36 AM -2.2 °F - -5.8 °F 85% 29.93 in 10.0 mi Calm Calm - N/A   Clear
4:56 AM -2.2 °F -10.4 °F -5.8 °F 85% 29.92 in 10.0 mi SE 3.5 mph - N/A   Clear
5:16 AM -2.2 °F -10.4 °F -5.8 °F 85% 29.91 in 10.0 mi SE 3.5 mph - N/A   Clear
5:36 AM -2.2 °F -10.4 °F -5.8 °F 85% 29.91 in 10.0 mi SSE 3.5 mph - N/A   Clear
5:56 AM -2.2 °F - -5.8 °F 85% 29.91 in 10.0 mi Calm Calm - N/A   Clear
6:16 AM -2.2 °F -10.4 °F -5.8 °F 85% 29.90 in 10.0 mi SE 3.5 mph - N/A   Clear
6:56 AM -2.2 °F - -5.8 °F 85% 29.89 in 10.0 mi Calm Calm - N/A   Clear
7:16 AM -2.2 °F -10.4 °F -5.8 °F 85% 29.89 in 10.0 mi SE 3.5 mph - N/A   Clear
7:36 AM -2.2 °F -10.4 °F -4.0 °F 92% 29.88 in 10.0 mi SE 3.5 mph - N/A   Partly Cloudy
7:56 AM -0.4 °F - -2.2 °F 92% 29.87 in 10.0 mi Calm Calm - N/A   Mostly Cloudy
8:16 AM -0.4 °F - -0.4 °F 100% 29.86 in 10.0 mi Calm Calm - N/A   Overcast
8:36 AM 1.4 °F -8.3 °F -0.4 °F 92% 29.85 in 10.0 mi East 4.6 mph - N/A   Overcast
8:56 AM 1.4 °F - -0.4 °F 92% 29.84 in 10.0 mi Calm Calm - N/A   Overcast
9:16 AM 3.2 °F -4.2 °F 1.4 °F 92% 29.83 in 10.0 mi SSE 3.5 mph - N/A   Overcast
9:36 AM 3.2 °F -7.8 °F 1.4 °F 92% 29.82 in 10.0 mi SSE 5.8 mph - N/A   Overcast
9:56 AM 5.0 °F - 3.2 °F 92% 29.80 in 10.0 mi Calm Calm - N/A   Overcast
10:16 AM 6.8 °F -0.1 °F 6.8 °F 100% 29.80 in 10.0 mi South 3.5 mph - N/A   Overcast
10:36 AM 6.8 °F - 5.0 °F 92% 29.79 in 10.0 mi Calm Calm - N/A   Overcast
10:56 AM 6.8 °F - 6.8 °F 100% 29.78 in 10.0 mi Calm Calm - N/A   Overcast
11:16 AM 8.6 °F 2.0 °F 6.8 °F 92% 29.78 in 10.0 mi South 3.5 mph - N/A   Overcast
11:36 AM 8.6 °F 2.0 °F 6.8 °F 92% 29.77 in 10.0 mi South 3.5 mph - N/A   Overcast
11:56 AM 8.6 °F 2.0 °F 8.6 °F 100% 29.75 in 10.0 mi South 3.5 mph - N/A   Overcast
12:16 PM 10.4 °F 2.2 °F 8.6 °F 92% 29.75 in 10.0 mi South 4.6 mph - N/A   Overcast
12:36 PM 10.4 °F 0.8 °F 8.6 °F 92% 29.73 in 10.0 mi South 5.8 mph - N/A   Overcast
12:56 PM 10.4 °F 2.2 °F 8.6 °F 92% 29.70 in 10.0 mi South 4.6 mph - N/A   Overcast
1:16 PM 12.2 °F 0.7 °F 8.6 °F 85% 29.69 in 10.0 mi SSW 8.1 mph - N/A   Overcast
1:36 PM 12.2 °F 1.7 °F 10.4 °F 92% 29.67 in 10.0 mi South 6.9 mph - N/A   Overcast
1:56 PM 12.2 °F 4.3 °F 10.4 °F 92% 29.65 in 10.0 mi South 4.6 mph - N/A   Overcast
2:16 PM 12.2 °F 1.7 °F 10.4 °F 92% 29.63 in 10.0 mi South 6.9 mph - N/A   Overcast
2:36 PM 12.2 °F 2.9 °F 10.4 °F 92% 29.60 in 10.0 mi South 5.8 mph - N/A   Overcast
2:56 PM 14.0 °F 5.1 °F 10.4 °F 86% 29.58 in 10.0 mi South 5.8 mph - N/A   Overcast
3:16 PM 14.0 °F 3.9 °F 10.4 °F 86% 29.56 in 10.0 mi South 6.9 mph - N/A   Overcast
3:36 PM 14.0 °F 3.9 °F 10.4 °F 86% 29.54 in 10.0 mi South 6.9 mph - N/A   Overcast
3:56 PM 14.0 °F 3.9 °F 10.4 °F 86% 29.54 in 10.0 mi South 6.9 mph - N/A   Overcast
4:16 PM 15.8 °F 7.2 °F 12.2 °F 86% 29.53 in 9.0 mi South 5.8 mph - N/A   Overcast
4:36 PM 15.8 °F 10.2 °F 12.2 °F 86% 29.53 in 1.8 mi South 3.5 mph - N/A   Overcast
4:56 PM 15.8 °F 10.2 °F 14.0 °F 93% 29.53 in 2.5 mi South 3.5 mph - N/A   Overcast
5:16 PM 15.8 °F 10.2 °F 14.0 °F 93% 29.51 in 1.5 mi South 3.5 mph - N/A   Overcast
5:36 PM 15.8 °F - 14.0 °F 93% 29.51 in 0.8 mi Calm Calm - N/A   Overcast
5:56 PM 15.8 °F - 15.8 °F 100% 29.48 in 1.2 mi Calm Calm - N/A   Overcast
6:16 PM 15.8 °F - 15.8 °F 100% 29.45 in 1.2 mi Calm Calm - N/A   Overcast
6:36 PM 15.8 °F - 15.8 °F 100% 29.44 in 1.2 mi Calm Calm - N/A   Overcast
6:56 PM 15.8 °F - 15.8 °F 100% 29.42 in 0.8 mi Calm Calm - N/A   Overcast
7:16 PM 15.8 °F - 15.8 °F 100% 29.40 in 1.5 mi Calm Calm - N/A   Overcast
7:36 PM 15.8 °F - 15.8 °F 100% 29.40 in 2.0 mi Calm Calm - N/A   Overcast
7:56 PM 15.8 °F - 14.0 °F 93% 29.39 in 2.5 mi Calm Calm - N/A   Overcast
8:16 PM 17.6 °F - 17.6 °F 100% 29.38 in 3.0 mi Calm Calm - N/A   Overcast
8:36 PM 19.4 °F - 17.6 °F 93% 29.37 in 3.0 mi Calm Calm - N/A   Overcast
8:56 PM 17.6 °F 12.3 °F 17.6 °F 100% 29.37 in 3.0 mi SSE 3.5 mph - N/A   Overcast
9:16 PM 17.6 °F - 17.6 °F 100% 29.36 in 2.5 mi Calm Calm - N/A   Overcast
9:36 PM 17.6 °F - 17.6 °F 100% 29.35 in 3.0 mi Calm Calm - N/A   Overcast
9:56 PM 17.6 °F - 17.6 °F 100% 29.34 in 4.0 mi Calm Calm - N/A   Overcast
10:16 PM 17.6 °F - 17.6 °F 100% 29.33 in 4.0 mi Calm Calm - N/A   Overcast
10:36 PM 17.6 °F - 15.8 °F 93% 29.32 in 7.0 mi Calm Calm - N/A   Overcast
10:56 PM 17.6 °F - 15.8 °F 93% 29.32 in 10.0 mi Calm Calm - N/A   Overcast
11:16 PM 19.4 °F - 17.6 °F 93% 29.32 in 10.0 mi Calm Calm - N/A   Overcast
11:36 PM 19.4 °F - 17.6 °F 93% 29.33 in 10.0 mi Calm Calm - N/A   Overcast
11:56 PM 19.4 °F 14.3 °F 17.6 °F 93% 29.32 in 6.0 mi North 3.5 mph - N/A   Overcast